Location: Düngen
(52.0952°N, 10.0219°E)
Time: 19:14:56
(UTC+00:00)

Cosmos 1943 Rocket - Pass Details

Date: 11 March 2026
Orbit: 809 x 844 km, 71.0° (Epoch: 20 April)

Event Time Altitude Azimuth Distance (km) Brightness Sun altitude
Rises 17:56:23 0° 209° (SSW) 3,332 5.7 -6.8°
Reaches altitude 10° 17:58:47 10° 209° (SSW) 2,408 4.9 -7.2°
Maximum altitude 18:04:19 89° 301° (WNW) 832 2.2 -8.0°
Drops below altitude 10° 18:09:57 10° 31° (NNE) 2,447 4.4 -8.9°
Sets 18:12:24 0° 31° (NNE) 3,390 5.1 -9.3°
